STARLINK-32301, 61664

Orbit data source: Space-Track

STARLINK-32301, 61664 is a payload satellite owned by SpaceX/Seattle (US) in LEO that was launched on Sat, 26 Oct 2024 UTC via an FALCON 9 launch vehicle from the Air Force Eastern Test Range (AFETR). Payload-class satellites include a variety of spacecraft equipped with specific instruments for various scientific and technological missions. These include communications satellites like Starlink; space stations such as the ISS; scientific satellites like the Hubble; Earth observation satellites from companies like Planet Labs, Umbra, and HawkEye 360; GPS; miniature CubeSats for education and research; and military/defense satellites.

Loading next visibility...
Identifier
61664, 2024-193D
Orbit
LEO
Country
Flag of USUS
Related business
Manufacturer
SpaceX/Seattle
Mission
Operational Commercial Communications
Bus & Motor
STARLINK V2M, Unknown motor
Mass
730 kg wet, ~700 kg dry
Launch date (UTC)
2024-10-26 (2 years ago)
Launch vehicle
FALCON 9
Launch site
Air Force Eastern Test Range (AFETR)
Object type
Payload
Rocket body
Debris
Shape & HBR
Box + 2 Pan, 17.7 m
Radar Cross Section
33.884 m², Large (>1 m²)

Expand to show TLE details & history
Last TLE update: 16 hours ago

TLE from 16 hours ago
0 STARLINK-32301
1 61664U 24193D   26171.18743568  .00001024  00000-0  44741-4 0  9992
2 61664  53.1620 334.6254 0001128  74.9352 285.1774 15.31704144 92220
Epoch: 2026-06-20T04:29Z
TLE epoch observation values (Epoch: 2026-06-20T04:29:54.442Z)
Latitude
-0.00005°
Longitude
-1.25714°
Altitude
471.426 km
Speed
7.632 km/s
True Right ascension
22h 18m 30s
True Declination
0° 00' 00"
Sunlit
Object was in full shadow at epoch
Visualization orbit readout
Latitude
Unknown
Longitude
Unknown
Altitude
Unknown
Speed
Unknown
Apparent Right ascension
Unknown
Apparent Declination
Unknown
Sunlit
N/A
Visualization observer readout
Local Sidereal Time
07:19:35
Azimuth
Unknown
Elevation
Unknown
Doppler factor
Unknown
Orbital elements
Apogee altitude
471.756 km
Perigee altitude
470.211 km
Semi-major axis
6,849.121 km
Eccentricity
0.00011
Inclination
53.162°
RAAN
334.6254°
Arg. of periapsis
74.9352°
True anomaly
285.16492°
Mean anomaly
285.1774°
Eccentric anomaly
285.17116°
Mean motion
3.82905 °/min
Orbital period
94.02 mins
BSTAR
0.000044741
Loading maneuver chart data...
Computing Atmospheric mass density...
Loading historical data...
Loading historical data...
Loading historical data...
Loading historical data...
Loading historical data...
Loading historical data...
Loading historical data...

Documentation

Showing up to 5 results
|